    Orbital elements:
    2020 DD3                                                 Earth MOID = 0.0046 AU
    Epoch 2020 May 31.0 TT = JDT 2459000.5                  Veres
    M  69.00695              (2000.0)            P               Q
    n   0.46613926     Peri.  267.30442     +0.55236426     -0.83208522
    a   1.6473742      Node   148.99717     +0.79835082     +0.51068803
    e   0.6614446      Incl.    5.60170     +0.23985349     +0.21640683
    P   2.11           H   24.9           G   0.15           U   7
    Residuals in seconds of arc
    200224 T05  0.3-  0.2-    200224 Z84  0.2-  0.0     200225 I52  0.3-  0.1+
    200224 T05  0.3-  0.4-    200224 C95  0.1+  0.1+    200225 I52  0.3+  0.2-
    200224 T05  0.8-  0.8+    200224 Z84  0.3-  0.2+    200225 I52  0.2-  0.1-
    200224 T05  0.1-  0.1+    200224 B49  1.4+  0.2-    200225 673  0.1-  0.1+
    200224 T05  0.4+  0.8-    200224 C95  0.2-  0.1-    200225 673  0.5-  0.6+
    200224 T05  0.9-  0.0     200224 L04  0.1-  0.2-    200225 673  0.0   0.6+
    200224 T05  0.3+  0.3-    200224 L04  0.7-  0.3+    200225 711  0.9+  0.1-
    200224 T05  0.5+  0.2+    200224 160  0.4+  0.0     200225 711  0.0   0.4-
    200224 B49  0.4+  0.7-    200224 K96  0.4+  0.2+    200225 711  0.4+  0.1-
    200224 Z84  0.1-  0.4+    200224 160  0.2+  0.1-    200225 703  0.1+  0.1+
    200224 L01  0.1-  0.2-    200224 160  0.2+  0.0     200225 703  0.1-  0.8-
    200224 L01  0.0   0.1-    200224 160  0.3-  0.3-    200225 703  0.9+  0.6+
    200224 L01  0.0   0.2-    200224 K96  0.0   0.4-    200225 703  0.2+  0.5-
    200224 L01  0.1+  0.1-    200224 160  0.0   0.2+    200225 033  0.5-  0.2-
    200224 L01  0.2-  0.1+    200224 K96  0.2+  0.0     200225 033  0.1-  0.2-
    200224 L01  0.1-  0.0     200224 Z80  0.1+  0.8+    200225 033  0.1+  0.1+
    200224 Z84  0.1+  0.1+    200225 Z80  0.6+  0.2+    200225 J69  0.0   0.2+
    200224 C95  0.3-  0.0     200225 Z80  0.1-  0.2-    200225 J69  0.2-  0.1+
    200224 L01  0.2-  0.1-    200225 J95  0.3+  0.3+    200225 J69  0.5-  0.0
    200224 L01  0.0   0.3-    200225 J95  0.1-  0.1+    200225 033  0.0   0.1-
    200224 L01  0.0   0.1-    200225 J95  0.1-  0.1-    200225 033  0.2-  0.3-
    200224 B49  0.2-  0.0     200225 J95  0.1-  0.1+    200225 033  0.2-  0.2-
    200224 L01  0.1-  0.0     200225 I52  0.6+  0.3+
    
    Ephemeris:
    2020 DD3                 a,e,i = 1.65, 0.66, 6                   q = 0.5577
    Date    TT    R. A. (2000) Decl.     Delta      r    Elong.  Phase     V
    2020 01 27    22 08 39.1 -18 28 08   0.3231  0.6966    22.3   147.5    29.6
    ...
    2020 02 11    22 18 38.9 -17 01 43   0.1243  0.8649    10.8   167.7    34.9
    ...
    2020 02 19    22 37 12.8 -07 50 25   0.02930 0.9594     8.5   171.3
    ...
    2020 02 25    09 54 47.1 +27 55 43   0.04276 1.0299   159.8    19.4    19.1
    2020 02 26    09 59 01.5 +26 10 07   0.05447 1.0416   161.1    17.9    19.6
    2020 02 27    10 01 43.3 +25 01 03   0.06625 1.0532   161.7    17.2    20.0
    ...
    2020 03 04    10 08 22.9 +22 07 13   0.1381  1.1223   160.0    17.5    21.8
    ...
    2020 03 12    10 12 09.7 +20 41 17   0.2374  1.2121   154.5    20.7    23.2
    ...
    2020 03 27    10 19 17.9 +18 54 35   0.4386  1.3723   142.6    26.2    25.0
    
    A. U. Tomatic                (C) Copyright 2020 MPC           M.P.E.C. 2020-D107
    


    Read MPEC 2020-D106 Read MPEC 2020-D108


    MPEC number:

    Enter an MPEC number in one of the following forms:

    • 1997-B01 (the full form)
    • J97B01 (the packed version of the full form)
    • B01 (the abbreviated form)